Location: Cussy
(47.0410°N, 4.6412°E)
Time: 14:31:09
(UTC+00:00)

Cosmos 2181 Rocket - Pass Details

Date: 30 November 2020
Orbit: 951 x 1015 km, 82.9° (Epoch: 27 January)

Event Time Altitude Azimuth Distance (km) Brightness Sun altitude
Rises 17:11:43 0° 184° (S) 3,734 7.4 -12.7°
Reaches altitude 10° 17:14:15 10° 183° (S) 2,783 6.7 -13.1°
Maximum altitude 17:20:40 84° 98° (E) 1,015 4.0 -14.2°
Drops below altitude 10° 17:27:03 10° 10° (N) 2,766 6.1 -15.2°
Sets 17:29:33 0° 10° (N) 3,710 6.8 -15.6°
